AirNav   ATP
 
 1076 users online  

26WI Kitty-Wompus Airport
Exeland, Wisconsin, USA

GOING TO EXELAND?


FAA INFORMATION EFFECTIVE 04 JANUARY 2018

Location

FAA Identifier: 26WI
Lat/Long: 45-41-56.8500N / 091-18-12.5700W
45-41.947500N / 091-18.209500W
45.6991250 / -91.3034917
(estimated)
Elevation: 1336 ft. / 407 m (estimated)
Variation: 01E (1990)
From city: 4 miles NW of EXELAND, WI
Time zone: UTC -6 (UTC -5 during Daylight Saving Time)
Zip code: 54835

Airport Operations

Airport use: Private use. Permission required prior to landing
Activation date: 03/1993
Control tower: no
ARTCC: MINNEAPOLIS CENTER
FSS: GREEN BAY FLIGHT SERVICE STATION
NOTAMs facility: FDC (NOTAM-D service not available)
Attendance: UNATNDD
Wind indicator: yes
Segmented circle: no

Airport Communications

WX AWOS-3 at RCX (18 nm SE): 118.125 (715-532-2665)

Nearby radio navigation aids

VOR radial/distance  VOR name  Freq  Var
HYRr160/20.1HAYWARD VOR/DME113.4003E

 
NDB name  Hdg/Dist  Freq  Var  ID
RUSK COUNTY313/17.435600WRCX .-. -.-. -..-
PARK FALLS248/39.737101WPKF .--. -.- ..-.

Airport Services

Runway Information

Runway 16/34

Dimensions: 3000 x 200 ft. / 914 x 61 m
Surface: turf
RUNWAY 16  RUNWAY 34
Traffic pattern: leftleft
Obstructions: roadtrees

Airport Ownership and Management from official FAA records

Ownership: Privately-owned
Owner: JORDAN A. ARVOLD
1339 HUNGERFORD PT.
ST. CROIX FALLS, WI 54024
Phone 715-483-9783
Manager: JORDAN A. ARVOLD
1339 HUNGERFORD PT.
ST. CROIX FALLS, WI 54024
Phone 715-483-9783

Instrument Procedures

There are no published instrument procedures at 26WI.

Some nearby airports with instrument procedures:

KRCX - Rusk County Airport (18 nm SE)
KHYR - Sawyer County Airport (20 nm N)
KRPD - Rice Lake Regional Airport - Carl's Field (26 nm SW)
KSSQ - Shell Lake Municipal Airport (26 nm W)
Y23 - Chetek Municipal-Southworth Airport (27 nm SW)
 
Loc | Ops | Rwys | IFR | FBO | Links
Com | Nav | Svcs | Stats | Notes


 
Area around 26WI (Kitty-Wompus Airport)
 
Road maps at: MapQuest Bing Google
 
Aerial photo
No photo
 
Sectional chart

 
Airport distance calculator
Flying to Kitty-Wompus Airport? Find the distance to fly.

From to 26WI

Sunrise and sunset
Times for 20-Jan-2018
 Local
(UTC-6)
 Zulu
(UTC)
Morning civil twilight07:0713:07
Sunrise07:4013:40
Sunset16:5322:53
Evening civil twilight17:2623:26

Current date and time
Zulu (UTC)  20-Jan-2018 16:24:48
Local (UTC-6)  20-Jan-2018 10:24:48
 
METAR
KRCX 
18nm SE 
201555Z AUTO 00000KT 5SM BR SCT110 M04/M05 A2987 RMK AO2 T10411047
KHYR 
20nm N 
201553Z AUTO 00000KT 6SM BR OVC100 M04/M06 A2985 RMK AO2 SLP124 T10391061
KRPD 
22nm SW 
201555Z AUTO 36003KT 7SM BKN100 M04/M04 A2988 RMK AO2 T10411043
KY23 
27nm SW 
201555Z AUTO 00000KT 7SM OVC100 M05/M05 A2986 RMK AO2 T10461048
KUBE 
31nm W 
201555Z AUTO 00000KT 7SM OVC100 M03/M04 A2986 RMK AO2
TAF
KHYR 
20nm N 
201331Z 2014/2112 00000KT 3SM BR SCT003 TEMPO 2014/2015 1SM BR VV003 FM201500 00000KT 3SM BR BKN020 FM201700 00000KT 2SM BR BKN030 FM202000 21004KT P6SM BKN110 FM210200 00000KT 5SM BR BKN110
NOTAMs
Click for the latest NOTAMs
NOTAMs are issued by the DoD/FAA and will open in a separate window not controlled by AirNav.

 

 
 

Would you like to see your business listed on this page?

 If your business provides an interesting product or service to pilots, flight crews, aircraft, or users of the Kitty-Wompus Airport, you should consider listing it here.  To start the listing process, click on the button below
 
Add a business
 

Other Pages about Kitty-Wompus Airport

Update a link
 
Copyright © AirNav, LLC. All rights reserved. Privacy Policy  Contact